リニア彗星

C/2010 S1 ( LINEAR )

English version
Home page
Updated on April 28, 2012

---------------------------------------------------------------------

・ プロフィール

発見日 2010年9月21日
発見光度 18.4等
発見者 Lincoln Laboratory Near-Earth Asteroid Research project

・ 写真集

・ 軌道要素

Epoch 2013 May 28.0 TT = JDT 2456440.5
T 2013 May 20.32268 TT                                  MPC
q   5.8997858            (2000.0)            P               Q
z  -0.0003169      Peri.  118.61696     +0.53546397     -0.22398753
 +/-0.0000005      Node    93.43039     -0.69562646     -0.66374945
e   1.0018694      Incl.  125.33583     +0.47893858     -0.71362893
From 2036 observations 2010 Sept. 21-2012 Mar. 8, mean residual 0".4.

・ 星図

・ 光度変化

        m1 = -2.0 + 5 logΔ + 15.0 log r

---------------------------------------------------------------------

軌道要素はM.P.E.C. 2012-F11に掲載されたものです。
星図はステラナビゲータ Ver.8 (アストロアーツ) で作成したものです。
光度グラフはComet for Windowsで作成したものです。

---------------------------------------------------------------------

Copyright(C) Seiichi Yoshida (comet@aerith.net). All rights reserved.